Theta_e
324 326 326 327 326 324 329 331 329 323 321 322 325 322 322 321 322 321 319 320 321 322 323 327 330 330 330 330 330 329 328 330 333 334 334 333 333 334 334 334 335 335 335 335
325 326 322 323 327 328 329 332 330 325 321 320 319 321 321 321 321 321 319 318 318 319 316 313 314 316 317 317 318 319 320 320 320 320 323 329 330 330 330 331 333 334 334 333
325 325 321 326 327 328 330 331 329 328 322 320 322 325 322 318 319 320 319 318 317 316 313 308 311 312 313 313 314 315 316 317 318 318 319 322 323 323 323 322 321 322 322 320
325 319 323 324 325 325 327 326 326 326 325 328 323 335 321 322 320 318 318 319 319 310 309 309 309 310 311 311 311 312 314 315 316 317 318 319 318 318 318 319 320 321 321 320
321 320 322 325 325 322 325 323 325 325 325 322 322 322 319 318 317 316 315 311 309 308 308 308 308 310 311 311 311 312 312 312 313 314 314 314 315 315 315 315 316 317 318 317
318 316 318 319 320 320 321 324 324 324 325 327 322 320 319 317 316 312 309 309 309 309 308 308 310 310 310 310 310 310 311 310 310 310 310 310 311 311 311 312 313 314 316 317
319 318 316 318 322 320 320 319 323 322 323 322 315 322 320 312 311 309 310 309 309 308 307 307 308 308 309 309 309 309 309 309 308 308 308 307 307 307 307 307 307 308 309 310
323 322 319 317 320 322 321 318 319 322 321 317 311 322 316 312 308 307 308 307 308 308 307 307 308 309 309 309 308 308 308 308 307 307 306 306 305 305 304 304 304 304 304 304
320 319 315 316 316 319 320 321 314 313 308 314 311 310 309 309 309 308 308 307 308 307 307 307 308 308 308 308 308 308 307 307 306 306 305 305 304 304 304 303 303 302 302 302
315 320 316 315 316 316 317 313 315 315 311 310 310 312 311 311 311 309 308 307 306 307 307 306 308 309 309 308 307 307 307 306 305 305 304 304 303 303 302 302 301 301 300 300
312 315 317 316 317 318 317 316 316 314 313 313 313 310 307 309 308 309 307 307 307 307 306 306 308 309 309 308 307 306 305 304 303 303 302 302 301 301 301 300 300 299 299 299
313 314 318 318 312 312 315 315 315 312 312 310 312 311 308 307 306 306 307 306 306 306 306 306 307 308 308 306 305 304 303 302 300 300 299 299 298 298 298 297 297 297 297 297
313 314 318 317 313 313 316 314 315 314 310 313 313 311 307 306 306 307 306 306 306 307 306 306 306 306 305 304 303 301 299 298 298 298 298 297 297 296 296 295 295 295 295 295
312 313 312 314 314 314 316 315 314 314 308 311 311 311 309 307 308 308 308 307 306 307 308 305 304 303 302 301 299 298 297 297 297 297 297 297 296 295 295 295 295 295 294 294
310 311 310 311 311 311 314 314 314 315 314 311 313 312 312 311 311 310 309 308 308 308 309 306 302 299 299 298 297 296 295 295 295 295 295 294 293 292 292 292 292 292 292 292
309 312 308 308 309 308 308 311 312 313 313 313 313 313 310 310 308 308 308 307 307 307 306 301 300 297 296 295 294 293 293 292 293 292 291 290 290 289 289 289 289 289 289 289
309 308 304 306 304 302 299 305 309 310 311 311 313 311 309 308 308 307 307 307 307 304 301 299 297 295 294 293 292 291 290 290 290 290 288 288 287 286 286 285 285 285 285 285
307 305 300 299 292 297 300 302 306 308 308 309 309 309 308 307 307 302 300 306 302 300 298 296 294 293 292 291 290 289 289 288 288 287 285 284 283 283 283 283 283 283 283 283
302 301 296 300 289 296 298 300 302 306 304 304 304 303 303 303 302 298 298 297 297 296 294 292 292 291 290 288 287 287 287 286 285 283 282 281 280 280 281 281 281 281 281 281
299 298 295 285 290 291 296 303 304 302 299 302 304 306 307 306 306 302 297 295 293 293 292 290 290 288 288 287 287 287 285 283 281 280 280 280 280 280 280 279 279 279 279 280
286 286 288 284 285 291 296 299 301 294 296 301 301 302 303 303 301 296 294 294 293 291 290 289 288 287 286 286 285 283 282 280 279 279 279 279 279 278 278 278 278 279 278 279
293 289 287 283 286 292 295 301 298 299 300 298 298 299 297 296 295 295 294 292 291 290 289 288 288 286 284 283 282 281 280 278 279 279 279 278 278 277 277 277 277 277 277 277
296 295 294 295 295 295 298 299 299 298 298 299 297 297 295 295 294 293 293 291 291 290 288 287 285 283 281 281 280 279 278 278 278 278 277 277 277 276 276 276 276 276 276 276
297 297 297 299 298 296 296 296 297 296 297 297 296 294 294 295 293 293 291 289 289 288 286 285 283 281 280 279 278 278 277 276 276 276 276 275 276 276 276 275 274 274 275 275
295 295 296 297 297 297 296 295 296 298 296 295 293 293 292 292 292 290 289 288 287 286 284 283 282 281 279 278 278 276 276 276 276 276 276 275 275 274 274 273 273 273 274 274
294 296 297 296 296 296 297 295 296 296 296 293 292 291 291 291 290 290 287 286 286 284 283 281 280 279 278 277 276 275 275 275 275 274 274 273 272 272 271 271 272 273 272 274
Wind_Speed
5 3 6 8 11 10 1 1 4 1 4 5 5 5 5 2 4 7 7 7 8 8 8 8 12 14 11 10 9 7 6 8 12 15 18 18 19 20 21 20 20 20 18 18
6 8 8 10 13 11 10 6 0 4 3 3 4 2 2 5 3 4 5 5 6 5 7 14 17 16 13 11 9 6 1 3 6 8 9 11 12 12 15 13 16 16 16 16
13 12 12 9 11 7 6 12 3 3 5 3 2 5 2 4 4 4 2 1 3 5 7 7 14 14 11 11 8 5 3 2 3 7 6 7 7 8 8 9 11 11 13 13
6 5 15 9 12 12 5 5 7 1 3 2 3 2 4 5 8 7 8 6 2 7 6 6 10 12 11 10 7 5 3 1 3 3 5 5 4 4 3 5 4 6 9 12
5 10 12 10 10 12 6 13 6 5 4 2 3 3 6 2 2 4 5 5 8 6 8 7 10 11 10 9 9 8 5 3 2 2 2 3 2 3 5 7 7 8 10 11
3 0 4 5 7 0 9 12 8 5 3 1 5 4 4 5 8 5 4 7 7 8 8 11 13 13 12 12 11 10 8 9 6 5 3 3 2 3 5 6 7 8 7 7
5 3 3 4 13 3 14 7 3 3 1 4 2 3 7 4 4 8 9 8 8 8 8 8 8 10 11 11 11 11 10 10 8 7 6 5 5 5 5 6 7 9 10 11
5 4 3 1 5 9 7 4 5 6 4 3 2 5 5 1 3 8 9 9 9 9 7 7 8 9 9 10 10 10 9 9 8 7 7 7 7 7 7 8 10 11 12 12
5 3 2 4 3 13 6 4 3 6 3 3 3 4 7 6 6 7 9 8 9 8 8 7 7 7 7 8 9 8 8 7 7 7 7 7 7 8 9 10 11 12 13 14
4 6 1 2 3 2 4 8 2 2 4 2 3 3 4 5 7 6 6 8 8 8 8 6 6 6 6 7 7 7 7 8 8 8 8 9 9 9 10 11 12 13 14 15
5 4 2 5 3 6 4 3 2 5 3 4 3 4 2 2 4 9 8 8 9 9 8 6 5 4 6 7 8 9 9 9 10 10 10 9 10 11 11 12 13 14 15 16
1 5 5 2 3 3 2 5 3 4 4 1 3 4 1 3 3 10 7 7 6 7 7 7 4 6 8 9 9 10 10 10 11 11 11 12 12 13 14 15 15 16 17 17
5 3 6 3 3 3 3 3 5 4 3 4 5 4 2 4 8 6 8 7 6 7 6 2 4 6 10 10 10 10 10 11 12 12 12 13 15 16 18 19 19 20 22 22
6 4 4 7 4 5 4 4 4 4 3 3 3 3 2 4 6 5 5 6 6 6 7 5 7 11 12 11 10 9 10 12 13 13 14 15 17 18 19 20 21 22 23 23
5 4 4 5 4 4 4 7 7 5 4 5 3 5 4 5 3 5 4 5 6 7 4 7 6 11 11 10 9 8 9 12 13 13 13 14 15 17 19 21 22 23 23 23
4 4 1 5 7 7 3 3 4 3 3 3 2 6 7 8 4 6 8 6 6 6 7 8 8 12 11 8 7 8 11 12 12 13 12 15 18 21 22 23 24 24 24 25
4 5 3 1 4 4 4 6 5 3 3 6 6 9 3 4 5 5 6 6 4 9 8 7 8 12 9 7 7 10 12 11 14 12 15 19 23 24 25 25 25 25 26 26
5 4 3 3 4 2 6 3 4 6 4 7 4 6 4 5 1 5 6 3 8 8 7 6 10 9 7 6 8 10 11 13 12 15 19 22 24 24 24 24 25 26 27 27
6 4 4 4 3 4 6 4 6 6 2 0 7 7 5 5 5 5 5 5 5 5 10 10 9 8 6 8 11 12 13 13 16 19 21 22 22 23 23 24 25 26 26 26
6 7 4 4 5 6 5 1 3 4 3 2 3 2 3 3 2 3 5 4 7 10 9 8 7 6 5 9 11 12 12 12 16 18 19 19 19 20 20 22 24 25 24 23
3 3 5 2 1 7 7 4 2 6 5 2 1 0 1 2 2 4 6 4 6 7 6 5 5 5 7 9 10 9 8 11 13 15 17 18 18 18 17 19 20 21 23 25
5 5 3 3 4 6 5 3 5 4 2 4 2 3 4 5 5 4 4 5 5 4 2 1 2 4 5 6 7 7 7 11 14 16 16 16 15 16 19 20 22 23 25 27
2 5 5 7 5 4 3 2 2 4 4 4 3 3 6 6 6 6 4 5 6 5 3 3 4 4 3 5 7 7 9 12 14 14 15 16 16 18 20 22 24 25 25 25
2 3 1 3 4 7 8 5 5 7 7 6 5 6 5 5 6 6 4 4 5 5 4 4 4 2 3 6 7 8 10 12 14 16 17 18 20 21 20 20 21 21 23 21
5 5 6 4 6 7 8 8 7 5 6 6 5 7 7 6 5 5 4 6 6 5 5 5 5 6 5 7 8 8 9 12 13 14 15 16 16 17 20 20 20 19 19 17
5 7 5 6 8 6 3 3 2 4 5 7 7 4 4 6 6 4 3 4 7 8 8 8 7 8 8 8 7 7 9 11 12 13 14 15 16 17 19 21 25 19 15 17
Wind_Direction
195 156 182 177 189 226 7 194 86 349 2 30 171 157 180 183 109 104 106 124 139 140 145 155 198 206 194 179 179 185 194 208 234 236 238 242 244 253 256 257 258 256 253 250
162 202 200 168 180 196 193 182 283 268 26 73 32 107 173 170 183 145 121 116 141 125 79 70 74 82 91 86 81 81 77 257 261 261 261 249 250 254 259 261 255 253 253 257
178 179 183 154 145 144 171 202 161 23 332 50 12 335 248 250 175 185 211 178 103 82 100 79 75 71 62 50 37 32 7 354 263 261 257 236 249 256 269 283 282 271 275 278
189 179 175 161 176 149 142 157 116 152 55 95 36 267 268 235 222 195 190 212 183 108 76 68 68 62 56 45 39 52 40 292 269 270 263 269 297 308 351 345 323 300 296 294
187 157 156 172 177 158 149 136 126 173 129 102 200 163 271 47 123 213 217 127 110 104 97 77 76 82 68 61 60 61 63 50 12 350 304 279 286 313 323 319 319 313 317 317
119 251 114 153 92 241 127 100 54 35 54 143 250 140 280 182 195 129 132 129 111 95 89 87 87 92 85 82 79 81 78 62 50 51 54 41 14 345 330 324 319 322 322 316
110 33 319 128 97 313 123 123 84 24 14 209 290 163 246 218 117 156 154 132 114 109 100 98 101 101 98 89 83 77 71 62 48 43 32 25 14 8 348 339 332 326 319 312
129 158 194 153 136 168 176 117 155 165 179 222 7 211 258 300 136 127 132 129 117 113 117 123 130 116 102 91 83 75 70 64 48 37 30 16 8 1 349 343 335 330 326 324
133 81 100 65 95 138 184 174 190 104 39 105 208 269 323 110 62 108 125 127 133 136 133 129 124 109 95 81 73 66 64 61 48 32 22 13 3 355 344 341 336 331 329 324
127 109 356 80 78 19 199 141 104 355 128 177 265 202 220 155 178 170 147 153 154 143 136 135 122 100 84 74 70 66 59 58 46 34 24 13 4 358 352 350 347 342 336 332
121 98 122 116 190 174 143 173 125 113 123 144 149 254 267 332 227 178 182 162 152 151 157 157 147 154 121 100 78 70 59 47 38 30 22 19 19 14 9 7 359 351 344 340
122 109 117 135 278 276 226 158 125 127 234 173 134 258 64 333 56 108 98 113 139 158 164 180 187 209 129 102 78 65 58 51 43 38 34 31 25 19 13 8 359 351 345 342
175 116 118 98 16 328 194 179 120 98 72 189 136 247 37 99 78 92 108 114 129 137 148 168 101 104 120 96 82 76 62 51 43 37 30 23 16 8 6 1 356 351 346 344
88 81 145 179 119 125 154 168 146 111 105 172 205 163 96 97 110 105 122 153 161 180 175 138 106 105 105 90 74 61 44 28 26 21 14 6 1 355 350 345 342 341 339 336
89 95 89 79 74 99 124 170 174 161 161 148 227 196 200 166 218 259 253 211 203 211 161 129 114 110 97 78 69 52 31 16 12 9 4 360 347 343 342 340 338 336 334 334
11 117 63 57 34 58 88 78 103 117 163 151 235 284 228 264 302 313 291 253 218 220 134 113 112 106 95 83 61 33 19 12 8 5 4 349 344 343 342 341 340 339 339 338
114 153 107 32 355 47 356 212 178 181 183 156 209 235 244 282 294 272 284 272 259 131 131 121 115 115 102 75 39 21 9 4 3 6 354 348 347 347 348 347 348 348 346 343
114 106 79 146 29 58 247 311 177 191 223 221 255 262 238 226 128 54 353 132 108 113 122 117 118 105 81 49 19 8 8 5 9 359 355 354 351 349 348 348 349 348 346 345
42 90 79 127 165 281 306 168 160 170 218 318 229 277 281 250 100 27 28 50 87 91 94 90 76 66 53 23 8 5 6 9 3 2 358 352 350 349 350 351 350 349 346 347
36 54 99 66 125 182 239 264 315 103 306 3 101 67 14 79 149 235 142 116 104 105 93 75 61 56 30 6 356 358 6 9 9 357 349 347 347 347 349 350 350 349 351 347
26 11 129 119 153 288 245 264 11 96 229 181 152 7 324 163 199 141 135 112 108 93 76 58 47 38 7 349 351 8 11 5 352 344 344 347 350 351 352 347 348 349 350 346
156 131 189 82 71 285 191 63 163 192 157 182 199 171 110 121 127 134 132 124 128 132 152 349 352 356 341 346 357 2 357 347 345 345 346 347 351 354 353 350 352 350 350 346
222 176 180 180 210 245 249 148 126 134 158 209 212 188 150 152 182 180 197 187 197 202 232 301 322 327 342 342 343 348 341 336 337 342 346 350 352 356 358 357 353 347 348 344
273 188 165 84 254 234 255 263 212 188 198 199 208 186 177 184 179 194 193 197 203 222 245 275 302 326 298 311 335 332 328 336 339 344 350 352 353 352 354 351 351 346 341 335
206 131 181 255 271 284 261 227 240 216 194 185 174 182 198 188 210 209 203 192 204 215 231 254 261 277 292 306 309 318 324 331 334 338 341 345 345 347 344 346 344 337 331 329
189 183 176 218 207 176 219 126 121 182 219 213 191 203 205 200 212 195 175 201 207 213 218 225 247 263 269 278 293 305 316 326 327 332 336 340 340 342 342 339 335 340 327 326